This is the latest recevied weather packets stored in our database for station/object SQ6RR-11. If no packets are shown the sender has not sent any weather packets the latest 10 day(s).
| Time | Temp. | Humidity | Pressure | Rain* | Wind** | Luminosity | Snow |
|---|---|---|---|---|---|---|---|
| 1777817474 | 27.78° C | 14% | 1015.7 hPa | 0 mm | - | - | - |
| 1777817211 | 28.89° C | 14% | 1015.7 hPa | 0 mm | - | - | - |
| 1777816937 | 28.89° C | 15% | 1015.8 hPa | 0 mm | - | - | - |
| 1777816667 | 28.33° C | 13% | 1015.9 hPa | 0 mm | - | - | - |
| 1777816401 | 28.33° C | 15% | 1015.9 hPa | 0 mm | - | - | - |
| 1777816142 | 27.78° C | 15% | 1015.9 hPa | 0 mm | - | - | - |
| 1777815882 | 27.78° C | 15% | 1016 hPa | 0 mm | - | - | - |
| 1777815612 | 27.78° C | 15% | 1016.1 hPa | 0 mm | - | - | - |
| 1777815332 | 27.78° C | 15% | 1016.2 hPa | 0 mm | - | - | - |
| 1777815047 | 27.22° C | 15% | 1016.2 hPa | 0 mm | - | - | - |
| 1777814784 | 26.67° C | 15% | 1016.3 hPa | 0 mm | - | - | - |
| 1777814512 | 26.11° C | 15% | 1016.4 hPa | 0 mm | - | - | - |
| 1777814230 | 26.67° C | 18% | 1016.5 hPa | 0 mm | - | - | - |
| 1777813937 | 25° C | 17% | 1016.6 hPa | 0 mm | - | - | - |
| 1777813675 | 25.56° C | 17% | 1016.5 hPa | 0 mm | - | - | - |
| 1777813397 | 25° C | 18% | 1016.6 hPa | 0 mm | - | - | - |
| 1777813142 | 25° C | 18% | 1016.6 hPa | 0 mm | - | - | - |
| 1777812867 | 25° C | 18% | 1016.7 hPa | 0 mm | - | - | - |
| 1777812616 | 25° C | 18% | 1016.7 hPa | 0 mm | - | - | - |
| 1777812333 | 25.56° C | 19% | 1016.8 hPa | 0 mm | - | - | - |
| 1777812076 | 25.56° C | 18% | 1016.8 hPa | 0 mm | - | - | - |
| 1777811817 | 25.56° C | 19% | 1016.8 hPa | 0 mm | - | - | - |
| 1777811539 | 25° C | 21% | 1017 hPa | 0 mm | - | - | - |
| 1777811275 | 24.44° C | 19% | 1016.9 hPa | 0 mm | - | - | - |
| 1777810997 | 24.44° C | 19% | 1017.1 hPa | 0 mm | - | - | - |
* Rain latest hour (hover to see other rain measurements)
** Current wind speed in m/s (hover to see current wind gust speed)